User: anonymous   Login
Location: LDNL
(36.4545°S, 141.6685°E)
Time: 13:35:33
(UTC+10:00)
Language:

Courier 1B - Orbit

View from above orbital plane
View from above orbital plane
View from above satellite
View from above satellite

Ground track
Ground track

The orbit data is extracted from the following two-line orbital elements,

1 00058U 60013A   24148.61711420  .00000127  00000-0  65219-4 0  9991
2 00058  28.3291 348.1091 0164819 112.8861 248.9173 13.46376514132833
Epoch (UTC): 27 May 2024 14:48:38
Eccentricity: 0.0164819
inclination: 28.3291°
perigee height: 962 km
apogee height: 1208 km
right ascension of ascending node: 348.1091°
argument of perigee: 112.8861°
revolutions per day: 13.46376514
mean anomaly at epoch: 248.9173°
orbit number at epoch: 13283

The dashed part of the orbit path shows where the satellite is in the earth's shadow,  

DLR